COSMOS 2476 (744)

Last updated on Fri Dec 12 2025 00:03:20 GMT+0000 (Coordinated Universal Time)

1 37867U 11064A 25344.81266762 -.00000024 00000+0 00000+0 0 9994 2 37867 65.1614 79.2364 0023892 233.6597 135.7131 2.13101258109752
UTC large
Height (km)
Speed (km/s)
/
Latitude / Longitude
Inclination (degrees)
Orbital Period (minutes)
Azimuth
Elevation
Range (km)
Doppler Factor

Next 0 passes for location: London (51.5072 / 0.1276)

Sorry there are no passes over London.